Location: Krakow
(50.0830°N, 19.9170°E)
Time: 05:17:00
(UTC+02:00)

Tiros 1 - Pass Details

Date: 16 February 2023
Orbit: 627 x 662 km, 48.4° (Epoch: 25 March)

Event Time Altitude Azimuth Distance (km) Brightness Sun altitude
Rises 00:16:47 0° 281° (W) 2,912 - -52.1°
Reaches altitude 10° 00:19:12 10° 273° (W) 2,004 - -52.1°
Maximum altitude 00:23:28 38° 206° (SSW) 955 - -52.0°
Drops below altitude 10° 00:27:45 10° 138° (SE) 2,009 - -51.8°
Sets 00:30:11 0° 130° (SE) 2,920 - -51.7°
